Regional Weather Roundup
Issued by NWS Sioux Falls, SD

Home | Current Version | Previous Version | Graphics & Text | Print | Product List | Glossary On
Versions: 1 2 3 4 5 6 7 8 9 10 11 12 13 14 15 16 17 18 19 20 21 22 23 24 25 26 27 28 29 30 31 32 33 34 35 36 37 38 39 40 41 42 43 44 45 46 47 48 49 50
000
ASUS43 KFSD 240202
RWRFSD

WEATHER ROUNDUP FOR SE SOUTH DAKOTA/SW MINNESOTA/NW IOWA
NATIONAL WEATHER SERVICE SIOUX FALLS SD
900 PM CDT MON MAY 23 2016

NOTE: "FAIR" INDICATES FEW OR NO CLOUDS BELOW 12,000 FEET WITH NO
SIGNIFICANT WEATHER AND OR OBSTRUCTIONS TO VISIBILITY.


SDZ038>040-050-052>070-240300-
SOUTHEAST SOUTH DAKOTA

CITY           SKY/WX    TMP DP  RH WIND       PRES   REMARKS
BROOKINGS      CLOUDY    67  58  72 S7        29.75R
CHAMBERLAIN    NOT AVBL
HURON          PTCLDY    69  54  58 S5        29.70S
MADISON        FAIR      66  63  88 S7        29.76R
MITCHELL       CLOUDY    70  61  73 SE5       29.72S
SIOUX FALLS    CLOUDY    68  61  78 S10       29.76R
WINNER         FAIR      69  49  48 W6        29.72R
YANKTON        CLOUDY    70  61  73 E7        29.72F
$$

MNZ071-072-080-081-089-090-097-098-240300-
SOUTHWEST MINNESOTA

CITY           SKY/WX    TMP DP  RH WIND       PRES   REMARKS
FAIRMONT       CLOUDY    66  61  82 W8        29.78F
JACKSON        RAIN      68  61  77 W3        29.81R
LUVERNE        CLOUDY    63  59  88 S9        29.78R
MARSHALL       CLOUDY    68  61  78 S14       29.74R
MONTEVIDEO     CLOUDY    72  59  64 SW6       29.73R
PIPESTONE      CLOUDY    66  63  88 S9        29.77R
REDWOOD FALLS  CLOUDY    66  60  81 SW18      29.72F
WINDOM         TSTM      64  61  88 SW14G22   29.80R
WORTHINGTON    LGT RAIN  65  61  87 S14       29.79F
$$

IAZ001>003-012>014-020>022-031-032-NEZ013-014-SDZ071-240300-
NORTHWEST IOWA

CITY           SKY/WX    TMP DP  RH WIND       PRES   REMARKS
DENISON        CLOUDY    64  63  94 CALM      29.76F
ESTHERVILLE    LGT RAIN  65  62  90 S8        29.78F
SIOUX CITY       N/A     68  63  84 MISG      29.75F
SPENCER        LGT RAIN  66  62  87 SW18      29.79R
STORM LAKE     CLOUDY    66  63  88 SW12      29.79R
$$

ABBREVIATIONS USED IN REMARKS
   TC - TEMPERATURE IN CELSIUS
  WCI - WIND CHILL INDEX
   HX - HEAT INDEX
  VSB - VISIBILITY




USA.gov is the U.S. government's official web portal to all federal, state and local government web resources and services.